sat.trackr.live / text

‹ back to catalog

STARLINK-33753

NORAD 63443 · 2025-069L

PAYLOAD ACTIVE UNKNOWN

§ Identity

Operator
Country
US
Launch date
2025-04-04
Launch site
AFWTR
Launch vehicle
Mass (kg)
RCS (m²)

Purposes: comms

External: N2YO · Heavens-Above · Gunter

§ Orbital elements

Epoch: 2026-09-20T13:39:51.210144Z

Period
93.85 min
Inclination
53.1567°
Eccentricity
0.0001549
Mean motion
15.34402247 rev/d
Perigee alt
461.6 km
Apogee alt
463.8 km
Semi-major
6,840.8 km
B*
3.6490e-4
RAAN
309.3245°
Arg perigee
100.7171°
Mean anomaly
259.4006°
Rev number
8,334

§ Raw data

STARLINK-337531 63443U 25069L   26263.56934271  .00011973  00000+0  36490-3 0  99932 63443  53.1567 309.3245 0001549 100.7171 259.4006 15.34402247 83347

JSON: /api/v1/satellites/63443 · /tle

For live sub-satellite position, see the globe view (requires WebGL).

§ Visibility from observer

Set your observer location to see the next 7 days of passes ≥ 10°. The values pass through the URL so the page stays shareable.

No JS? Fill the form by hand. The geolocation button needs JavaScript.